Time,TemperatureF,DewpointF,PressureIn,WindDirection,WindDirectionDegrees,WindSpeedMPH,WindSpeedGustMPH,Humidity,HourlyPrecipIn,Conditions,Clouds,dailyrainin,SoftwareType,DateUTC
2013-07-23 00:01:00,69.0,65.0,29.89,ESE,113,0.0,4.0,87,0.00,,,0.00,,2013-07-23 04:01:00,
2013-07-23 00:11:00,69.0,65.0,29.89,ESE,113,0.0,1.0,88,0.00,,,0.00,,2013-07-23 04:11:00,
2013-07-23 00:22:00,69.0,65.0,29.89,ESE,113,0.0,1.0,88,0.00,,,0.00,,2013-07-23 04:22:00,
2013-07-23 00:32:00,69.0,65.0,29.88,ESE,112,0.0,2.0,88,0.00,,,0.00,,2013-07-23 04:32:00,
2013-07-23 00:43:00,69.0,65.0,29.87,ESE,111,0.0,2.0,88,0.00,,,0.00,,2013-07-23 04:43:00,
2013-07-23 00:53:00,69.0,65.0,29.87,ESE,111,0.0,2.0,88,0.00,,,0.00,,2013-07-23 04:53:00,
2013-07-23 01:02:00,69.0,65.0,29.86,ESE,111,0.0,3.0,88,0.00,,,0.00,,2013-07-23 05:02:00,
2013-07-23 01:11:00,69.0,65.0,29.85,ESE,111,0.0,1.0,88,0.00,,,0.00,,2013-07-23 05:11:00,
2013-07-23 01:33:00,69.0,65.0,29.85,ESE,111,0.0,1.0,88,0.00,,,0.00,,2013-07-23 05:33:00,
2013-07-23 01:44:00,69.0,66.0,29.84,ESE,111,0.0,1.0,89,0.00,,,0.00,,2013-07-23 05:44:00,
2013-07-23 01:52:00,69.0,66.0,29.84,ESE,111,0.0,2.0,89,0.00,,,0.00,,2013-07-23 05:52:00,
2013-07-23 02:01:00,69.0,66.0,29.84,ESE,111,0.0,2.0,89,0.00,,,0.00,,2013-07-23 06:01:00,
2013-07-23 02:11:00,69.0,66.0,29.83,ESE,111,0.0,0.0,90,0.00,,,0.00,,2013-07-23 06:11:00,
2013-07-23 02:33:00,69.0,66.0,29.83,ESE,111,0.0,3.0,90,0.00,,,0.00,,2013-07-23 06:33:00,
2013-07-23 02:42:00,69.0,66.0,29.82,ESE,108,0.0,5.0,91,0.00,,,0.00,,2013-07-23 06:42:00,
2013-07-23 03:02:00,68.0,65.0,29.81,ESE,108,0.0,2.0,91,0.00,,,0.00,,2013-07-23 07:02:00,
2013-07-23 03:12:00,68.0,65.0,29.81,ESE,108,0.0,3.0,91,0.00,,,0.00,,2013-07-23 07:12:00,
2013-07-23 03:33:00,68.0,66.0,29.79,ESE,108,0.0,2.0,92,0.00,,,0.00,,2013-07-23 07:33:00,
2013-07-23 03:42:00,68.0,66.0,29.79,ESE,110,0.0,3.0,92,0.00,,,0.00,,2013-07-23 07:42:00,
2013-07-23 04:01:00,68.0,66.0,29.78,ESE,109,0.0,3.0,92,0.00,,,0.00,,2013-07-23 08:01:00,
2013-07-23 04:11:00,68.0,66.0,29.77,ESE,108,0.0,2.0,92,0.00,,,0.00,,2013-07-23 08:11:00,
2013-07-23 04:22:00,68.0,66.0,29.77,ESE,108,0.0,2.0,92,0.00,,,0.00,,2013-07-23 08:22:00,
2013-07-23 04:33:00,68.0,66.0,29.76,ESE,108,0.0,0.0,93,0.01,,,0.01,,2013-07-23 08:33:00,
2013-07-23 04:43:00,68.0,66.0,29.76,ESE,108,0.0,1.0,93,0.01,,,0.01,,2013-07-23 08:43:00,
2013-07-23 04:52:00,68.0,66.0,29.76,ESE,108,0.0,1.0,93,0.01,,,0.01,,2013-07-23 08:52:00,
2013-07-23 05:01:00,68.0,66.0,29.75,ESE,108,0.0,0.0,93,0.01,,,0.01,,2013-07-23 09:01:00,
2013-07-23 05:11:00,68.0,66.0,29.75,ESE,108,0.0,0.0,93,0.03,,,0.03,,2013-07-23 09:11:00,
2013-07-23 05:22:00,68.0,66.0,29.75,ESE,108,0.0,0.0,93,0.03,,,0.03,,2013-07-23 09:22:00,
2013-07-23 05:33:00,68.0,66.0,29.75,ESE,108,0.0,0.0,93,0.06,,,0.07,,2013-07-23 09:33:00,
2013-07-23 05:42:00,68.0,66.0,29.74,ESE,108,0.0,0.0,94,0.08,,,0.09,,2013-07-23 09:42:00,
2013-07-23 06:02:00,69.0,67.0,29.73,ESE,108,0.0,0.0,94,0.08,,,0.09,,2013-07-23 10:02:00,
2013-07-23 06:11:00,69.0,67.0,29.73,ESE,108,0.0,0.0,94,0.07,,,0.11,,2013-07-23 10:11:00,
2013-07-23 06:32:00,69.0,67.0,29.73,ESE,108,0.0,0.0,94,0.07,,,0.14,,2013-07-23 10:32:00,
2013-07-23 06:44:00,69.0,68.0,29.73,ESE,108,0.0,0.0,95,0.10,,,0.19,,2013-07-23 10:44:00,
2013-07-23 07:02:00,69.0,68.0,29.72,ESE,108,0.0,3.0,95,0.13,,,0.23,,2013-07-23 11:02:00,
2013-07-23 07:12:00,69.0,68.0,29.72,ESE,110,0.0,4.0,95,0.17,,,0.28,,2013-07-23 11:12:00,
2013-07-23 07:22:00,69.0,68.0,29.72,ESE,110,0.0,4.0,95,0.17,,,0.28,,2013-07-23 11:22:00,
2013-07-23 07:32:00,69.0,68.0,29.71,SE,124,0.0,4.0,95,0.24,,,0.38,,2013-07-23 11:32:00,
2013-07-23 07:43:00,69.0,68.0,29.71,SE,124,0.0,2.0,95,0.51,,,0.71,,2013-07-23 11:43:00,
2013-07-23 08:02:00,69.0,68.0,29.70,SSE,148,0.0,8.0,95,1.13,,,1.37,,2013-07-23 12:02:00,
2013-07-23 08:11:00,70.0,68.0,29.70,SSE,148,0.0,0.0,95,1.12,,,1.41,,2013-07-23 12:11:00,
2013-07-23 08:22:00,70.0,68.0,29.70,SSE,148,0.0,0.0,95,1.12,,,1.41,,2013-07-23 12:22:00,
2013-07-23 08:33:00,70.0,68.0,29.69,SSE,159,0.0,0.0,95,1.05,,,1.43,,2013-07-23 12:33:00,
2013-07-23 08:43:00,70.0,68.0,29.69,SSE,159,0.0,0.0,95,0.70,,,1.43,,2013-07-23 12:43:00,
2013-07-23 09:02:00,71.0,69.0,29.68,SSE,159,0.0,0.0,95,0.05,,,1.43,,2013-07-23 13:02:00,
2013-07-23 09:11:00,71.0,69.0,29.68,SSE,159,0.0,0.0,95,0.05,,,1.43,,2013-07-23 13:11:00,
2013-07-23 09:32:00,71.0,69.0,29.67,SSE,159,0.0,1.0,95,0.18,,,1.61,,2013-07-23 13:32:00,
2013-07-23 09:43:00,71.0,70.0,29.67,SSE,159,0.0,2.0,96,0.19,,,1.62,,2013-07-23 13:43:00,
2013-07-23 09:52:00,71.0,70.0,29.67,SSE,159,0.0,2.0,96,0.19,,,1.62,,2013-07-23 13:52:00,
2013-07-23 10:02:00,71.0,70.0,29.66,SSE,159,0.0,0.0,96,0.19,,,1.62,,2013-07-23 14:02:00,
2013-07-23 10:22:00,72.0,71.0,29.65,SSE,159,0.0,0.0,96,0.07,,,1.63,,2013-07-23 14:22:00,
2013-07-23 10:33:00,72.0,71.0,29.65,SSE,159,0.0,0.0,96,0.02,,,1.63,,2013-07-23 14:33:00,
2013-07-23 10:44:00,73.0,72.0,29.64,SSE,159,0.0,0.0,96,0.01,,,1.63,,2013-07-23 14:44:00,
2013-07-23 10:53:00,73.0,72.0,29.64,SSE,159,0.0,0.0,96,0.01,,,1.63,,2013-07-23 14:53:00,
2013-07-23 11:03:00,74.0,73.0,29.63,SSE,159,0.0,0.0,96,0.01,,,1.63,,2013-07-23 15:03:00,
2013-07-23 11:32:00,74.0,73.0,29.62,SSE,159,0.0,5.0,96,0.01,,,1.64,,2013-07-23 15:32:00,
2013-07-23 11:43:00,74.0,73.0,29.62,SSE,163,0.0,5.0,96,0.01,,,1.64,,2013-07-23 15:43:00,
2013-07-23 11:52:00,74.0,73.0,29.62,SSE,163,0.0,5.0,96,0.01,,,1.64,,2013-07-23 15:52:00,
2013-07-23 12:01:00,75.0,74.0,29.61,SSE,163,0.0,0.0,96,0.02,,,1.65,,2013-07-23 16:01:00,
2013-07-23 12:12:00,75.0,74.0,29.61,SSE,163,0.0,0.0,96,0.02,,,1.65,,2013-07-23 16:12:00,
2013-07-23 12:22:00,76.0,75.0,29.61,SSE,163,0.0,1.0,96,0.01,,,1.65,,2013-07-23 16:22:00,
2013-07-23 12:33:00,76.0,74.0,29.60,South,169,0.0,6.0,95,0.01,,,1.65,,2013-07-23 16:33:00,
2013-07-23 13:02:00,73.0,71.0,29.61,WNW,282,0.0,5.0,95,0.52,,,2.17,,2013-07-23 17:02:00,
2013-07-23 13:11:00,72.0,70.0,29.59,West,281,0.0,0.0,95,0.69,,,2.34,,2013-07-23 17:11:00,
2013-07-23 13:32:00,73.0,71.0,29.59,West,281,0.0,3.0,95,0.69,,,2.34,,2013-07-23 17:32:00,
2013-07-23 13:42:00,73.0,71.0,29.59,West,281,0.0,1.0,95,0.53,,,2.35,,2013-07-23 17:42:00,
2013-07-23 14:04:00,74.0,73.0,29.58,West,281,0.0,2.0,96,0.17,,,2.37,,2013-07-23 18:04:00,
2013-07-23 14:13:00,75.0,74.0,29.57,SSW,194,1.0,7.0,96,0.03,,,2.37,,2013-07-23 18:13:00,
2013-07-23 14:35:00,75.0,73.0,29.56,South,184,0.0,4.0,95,0.03,,,2.37,,2013-07-23 18:35:00,
2013-07-23 14:48:00,75.0,73.0,29.56,South,184,0.0,0.0,95,0.04,,,2.39,,2013-07-23 18:48:00,
2013-07-23 15:03:00,76.0,74.0,29.56,South,184,0.0,0.0,95,0.05,,,2.42,,2013-07-23 19:03:00,
2013-07-23 15:15:00,77.0,76.0,29.55,South,184,0.0,1.0,96,0.05,,,2.42,,2013-07-23 19:15:00,
2013-07-23 15:34:00,78.0,76.0,29.54,South,184,0.0,1.0,95,0.05,,,2.42,,2013-07-23 19:34:00,
2013-07-23 15:47:00,80.0,78.0,29.54,WNW,286,2.0,7.0,95,0.02,,,2.42,,2013-07-23 19:47:00,
2013-07-23 15:54:00,75.0,72.0,29.56,NW,315,0.0,8.0,91,0.00,,,2.42,,2013-07-23 19:54:00,
2013-07-23 16:24:00,73.0,71.0,29.57,NW,306,0.0,9.0,92,0.04,,,2.46,,2013-07-23 20:24:00,
2013-07-23 17:37:00,73.0,71.0,29.55,WNW,287,0.0,0.0,93,0.01,,,2.47,,2013-07-23 21:37:00,
2013-07-23 17:47:00,74.0,72.0,29.54,WNW,287,0.0,0.0,93,0.00,,,2.47,,2013-07-23 21:47:00,
2013-07-23 17:55:00,74.0,72.0,29.54,WNW,287,0.0,0.0,93,0.00,,,2.47,,2013-07-23 21:55:00,
2013-07-23 18:06:00,74.0,72.0,29.54,WNW,287,0.0,0.0,94,0.00,,,2.47,,2013-07-23 22:06:00,
2013-07-23 18:24:00,74.0,72.0,29.55,WNW,287,0.0,2.0,93,0.00,,,2.47,,2013-07-23 22:24:00,
2013-07-23 18:57:00,73.0,71.0,29.57,SSW,194,0.0,5.0,94,0.00,,,2.47,,2013-07-23 22:57:00,
2013-07-23 19:25:00,72.0,70.0,29.57,SSW,194,0.0,1.0,94,0.00,,,2.47,,2013-07-23 23:25:00,
2013-07-23 20:10:00,73.0,71.0,29.59,SSW,194,0.0,1.0,95,0.00,,,2.47,,2013-07-24 00:10:00,
2013-07-23 20:34:00,73.0,71.0,29.59,SSW,194,0.0,1.0,95,0.00,,,2.47,,2013-07-24 00:34:00,
2013-07-23 20:49:00,73.0,71.0,29.59,SSW,194,0.0,0.0,95,0.00,,,2.47,,2013-07-24 00:49:00,
2013-07-23 21:04:00,72.0,70.0,29.58,SSW,194,0.0,0.0,95,0.00,,,2.47,,2013-07-24 01:04:00,
2013-07-23 21:24:00,72.0,70.0,29.59,SSW,194,0.0,0.0,95,0.00,,,2.47,,2013-07-24 01:24:00,
2013-07-23 21:44:00,72.0,70.0,29.60,SSW,194,0.0,0.0,95,0.00,,,2.47,,2013-07-24 01:44:00,
2013-07-23 21:57:00,72.0,70.0,29.60,SSW,194,0.0,0.0,95,0.00,,,2.47,,2013-07-24 01:57:00,
2013-07-23 22:39:00,72.0,70.0,29.60,SSW,194,0.0,0.0,95,0.00,,,2.47,,2013-07-24 02:39:00,
2013-07-23 22:47:00,72.0,70.0,29.61,SSW,194,0.0,2.0,95,0.00,,,2.47,,2013-07-24 02:47:00,
2013-07-23 23:24:00,71.0,70.0,29.61,SSW,194,0.0,0.0,96,0.00,,,2.47,,2013-07-24 03:24:00,
2013-07-23 23:46:00,71.0,70.0,29.60,SSW,194,0.0,1.0,96,0.00,,,2.47,,2013-07-24 03:46:00,